TimeEST,TemperatureF,Dew PointF,Humidity,Sea Level PressureIn,VisibilityMPH,Wind Direction,Wind SpeedMPH,Gust SpeedMPH,PrecipitationIn,Events,Conditions,WindDirDegrees,DateUTC
12:22 AM,45.0,42.1,90,29.74,10.0,West,10.4,18.4,N/A,,Scattered Clouds,280,2014-01-15 05:22:00
12:56 AM,45.0,41.0,86,29.78,10.0,West,9.2,-,N/A,,Clear,280,2014-01-15 05:56:00
1:56 AM,43.0,39.9,89,29.81,10.0,WNW,4.6,-,N/A,,Clear,290,2014-01-15 06:56:00
2:56 AM,42.1,39.0,89,29.85,10.0,West,5.8,-,N/A,,Clear,270,2014-01-15 07:56:00
3:56 AM,37.0,36.0,96,29.90,10.0,SW,5.8,-,N/A,,Clear,230,2014-01-15 08:56:00
4:56 AM,37.0,35.1,93,29.94,10.0,WSW,6.9,-,N/A,,Clear,240,2014-01-15 09:56:00
5:56 AM,37.0,35.1,93,29.96,10.0,WSW,5.8,-,N/A,,Clear,250,2014-01-15 10:56:00
6:56 AM,36.0,34.0,93,29.99,9.0,SW,3.5,-,N/A,,Clear,220,2014-01-15 11:56:00
7:56 AM,36.0,34.0,93,29.99,10.0,Calm,Calm,-,N/A,,Clear,0,2014-01-15 12:56:00
8:56 AM,42.1,37.9,85,30.02,10.0,WSW,5.8,-,N/A,,Clear,250,2014-01-15 13:56:00
9:56 AM,45.0,39.0,80,30.02,10.0,WSW,4.6,-,N/A,,Clear,250,2014-01-15 14:56:00
10:56 AM,46.9,36.0,66,30.03,10.0,South,6.9,-,N/A,,Clear,190,2014-01-15 15:56:00
11:56 AM,46.9,35.1,63,30.01,10.0,SSW,6.9,-,N/A,,Clear,210,2014-01-15 16:56:00
12:56 PM,46.0,35.1,66,29.99,10.0,South,4.6,-,N/A,,Clear,190,2014-01-15 17:56:00
1:56 PM,45.0,34.0,65,29.97,10.0,South,9.2,-,N/A,,Clear,190,2014-01-15 18:56:00
2:56 PM,44.1,36.0,73,29.99,10.0,SSW,8.1,-,N/A,,Scattered Clouds,200,2014-01-15 19:56:00
3:04 PM,43.0,35.1,74,29.98,10.0,South,8.1,-,N/A,,Mostly Cloudy,190,2014-01-15 20:04:00
3:56 PM,41.0,36.0,82,29.96,10.0,South,3.5,-,N/A,,Mostly Cloudy,170,2014-01-15 20:56:00
4:20 PM,41.0,36.0,82,29.96,10.0,Calm,Calm,-,N/A,,Partly Cloudy,0,2014-01-15 21:20:00
4:56 PM,41.0,37.0,86,29.96,10.0,Calm,Calm,-,N/A,,Clear,0,2014-01-15 21:56:00
5:56 PM,36.0,34.0,93,29.96,9.0,Calm,Calm,-,N/A,,Clear,0,2014-01-15 22:56:00
6:56 PM,35.1,33.1,92,29.96,6.0,Calm,Calm,-,N/A,,Clear,0,2014-01-15 23:56:00
7:56 PM,35.1,33.1,92,29.94,8.0,Calm,Calm,-,N/A,,Clear,0,2014-01-16 00:56:00
8:56 PM,34.0,32.0,92,29.93,8.0,Calm,Calm,-,N/A,,Clear,0,2014-01-16 01:56:00
9:56 PM,34.0,32.0,92,29.91,8.0,Calm,Calm,-,N/A,,Clear,0,2014-01-16 02:56:00
10:56 PM,33.1,30.9,92,29.87,6.0,Calm,Calm,-,N/A,,Partly Cloudy,0,2014-01-16 03:56:00
11:31 PM,34.0,32.0,92,29.86,9.0,Calm,Calm,-,N/A,,Mostly Cloudy,0,2014-01-16 04:31:00
11:56 PM,35.1,33.1,92,29.86,6.0,Calm,Calm,-,N/A,,Overcast,0,2014-01-16 04:56:00